SCP
0 0 -0 0 0 0 0 0 0 0 0 0 0 0 0 0 0 0 0 0 0 0 0 0 0 0 0 0 0 0 0 0 0 0 0 0 0 0 0 0 0 0 0 0
0 0 0 0 0 0 0 0 0 0 0 0 0 0 0 0 0 0 0 0 0 0 0 0 0 0 0 0 0 0 0 0 0 0 0 0 0 0 0 0 0 0 0 0
0 0 0 0 0 0 -0 0 0 0 0 0 0 0 0 0 0 0 0 0 0 0 0 0 0 0 0 0 0 0 0 0 0 0 0 0 0 0 0 0 0 0 0 0
0 0 0 0 0 0 -0 0 0 0 0 0 0 0 0 0 0 0 0 0 0 0 0 0 0 0 0 0 0 0 0 0 0 0 0 0 0 0 0 0 0 0 0 0
0 0 0 0 0 0 -0 0 0 0 0 0 0 0 0 0 0 0 0 0 0 0 0 0 0 0 0 0 0 0 0 0 0 0 0 0 0 0 0 0 0 0 0 -0
0 0 0 0 0 0 0 0 -0 -0 -0 -0 0 0 0 0 0 0 0 0 0 0 0 0 0 0 0 0 0 0 0 0 0 0 0 0 0 0 0 0 0 0 0 0
0 0 0 0 -0 -0 0 0 -0 -0 -0 -0 -0 -0 -0 0 0 0 0 0 0 0 0 0 0 0 0 0 0 0 0 0 0 0 0 0 0 0 0 0 0 0 0 0
0 0 0 0 0 0 -0 0 0 0 0 -0 -0 -0 0 0 0 0 0 0 0 0 0 0 0 0 0 0 0 0 0 0 0 0 0 0 0 0 0 0 0 0 0 0
0 0 0 0 0 0 0 0 0 0 0 0 0 -0 0 -0 0 0 0 0 0 0 0 0 0 0 0 0 0 0 0 0 0 0 0 0 0 0 0 0 0 -0 -0 0
0 0 0 0 0 0 0 0 0 0 0 0 0 0 0 0 0 0 0 0 0 0 0 0 0 0 0 0 0 0 0 0 0 0 0 0 0 0 0 0 0 0 0 0
0 0 0 0 0 0 0 0 0 0 0 0 0 0 0 0 0 0 0 0 0 0 0 0 0 0 0 0 0 0 0 0 0 0 0 0 0 0 0 0 0 0 0 0
0 0 0 0 0 0 0 0 0 0 0 0 0 0 0 0 0 0 0 0 0 0 0 0 0 0 0 0 0 0 0 0 0 0 0 0 0 0 0 0 0 0 0 0
0 0 0 0 0 0 0 0 0 0 0 0 0 0 0 0 0 0 0 0 0 0 0 0 0 0 0 0 0 0 0 0 0 0 0 0 0 0 0 0 0 0 0 0
0 0 0 0 0 0 0 0 0 0 0 0 0 0 0 0 0 0 0 0 0 0 0 0 0 0 0 0 0 0 0 0 0 0 0 0 0 0 0 0 0 0 0 0
0 0 0 0 0 0 0 0 0 0 0 0 0 0 0 0 0 0 0 0 0 0 0 0 0 0 0 0 0 0 0 0 0 0 0 0 0 0 0 -0 0 0 0 0
0 0 0 0 0 0 0 0 0 0 0 0 0 0 0 0 0 0 0 0 0 0 0 0 0 0 0 0 0 0 0 0 0 0 0 0 0 -0 -0 0 0 0 0 0
0 0 0 0 0 0 0 0 0 0 0 0 0 0 0 0 0 0 0 0 0 0 0 0 0 0 0 0 0 0 0 0 0 0 0 0 0 0 0 0 0 0 0 0
0 0 0 0 0 0 0 0 0 0 0 0 0 0 0 0 0 0 0 0 0 0 0 0 0 0 0 0 0 0 0 0 0 0 0 0 0 0 0 0 0 0 0 0
0 0 0 0 0 0 0 0 0 0 0 0 0 0 0 0 0 0 0 0 0 0 0 0 0 0 0 0 0 0 0 0 0 0 0 0 0 0 0 0 0 0 0 0
0 0 0 0 0 0 0 0 0 0 0 0 0 0 0 0 0 0 0 0 0 0 0 0 0 0 0 0 0 0 0 0 0 0 0 0 0 0 0 0 0 0 0 0
0 0 0 0 0 0 0 0 0 0 0 0 0 0 0 0 0 0 0 0 0 0 0 0 0 0 0 0 0 0 0 0 0 0 0 0 0 0 0 0 0 0 0 0
0 0 0 0 0 0 0 0 0 0 0 0 0 0 0 0 0 0 0 0 0 0 0 0 0 0 0 0 0 0 0 0 0 0 0 0 0 0 0 0 0 0 0 0
-0 0 0 0 0 0 0 0 0 0 0 0 0 0 0 0 0 0 0 0 0 0 0 0 -0 0 0 0 0 0 0 0 0 0 0 0 0 0 0 0 0 0 0 0
0 0 0 0 0 0 0 0 0 0 0 0 0 0 0 0 0 0 0 0 0 0 0 0 0 0 0 0 0 0 0 0 0 0 0 0 0 0 0 0 0 0 0 0
-0 0 0 0 0 0 0 0 0 0 0 0 0 0 0 0 0 0 0 0 0 0 0 0 0 0 0 0 0 0 0 0 0 0 0 0 0 0 0 0 0 0 0 0
0 0 0 0 0 0 0 0 0 0 0 0 0 0 0 0 0 0 0 0 0 0 0 0 0 0 0 0 0 0 0 0 0 0 0 0 0 0 0 0 0 0 0 0
0 0 0 0 0 0 0 0 0 0 0 0 0 0 0 0 0 0 0 0 0 0 0 0 0 0 0 0 0 0 0 0 0 0 0 0 0 0 0 0 0 0 0 0
Wind_Speed_500mb
53 57 64 55 31 26 56 34 5 16 35 8 6 21 8 10 6 4 6 5 8 11 12 14 15 14 7 15 20 20 9 2 8 11 7 5 5 11 19 10 12 12 12 21
51 53 46 27 18 20 7 1 5 25 50 10 12 10 12 11 12 12 1 7 12 12 12 9 14 13 7 23 14 10 17 7 7 8 3 2 10 15 16 16 7 28 17 15
48 47 48 38 31 28 32 10 4 3 24 12 8 19 16 21 24 19 17 9 8 10 13 17 5 7 3 13 7 8 14 9 13 20 8 7 8 13 25 20 15 24 42 49
46 46 46 45 44 30 18 13 4 1 2 7 13 15 9 14 16 10 10 10 37 27 14 6 12 12 6 3 9 8 4 10 8 20 25 11 14 16 21 31 40 27 43 50
40 42 44 42 43 36 11 8 6 4 8 12 11 9 8 23 15 9 11 26 19 23 33 29 3 13 12 13 5 11 3 14 5 10 23 24 29 31 27 43 43 49 49 71
37 37 36 36 36 32 10 14 9 7 11 6 6 9 5 7 6 18 33 19 10 23 35 33 43 24 26 19 15 20 13 11 8 13 4 16 29 40 48 43 37 46 45 69
39 36 36 33 26 22 15 15 13 9 14 13 14 9 18 23 23 21 29 31 16 7 17 11 20 27 31 32 27 27 12 17 9 5 4 17 2 4 15 40 43 40 52 58
46 41 38 32 29 23 19 19 14 8 13 20 24 27 24 33 34 32 35 46 47 36 12 7 8 7 7 15 29 23 21 18 8 10 19 25 33 20 15 16 22 37 45 49
48 46 47 41 38 36 34 33 28 22 18 14 26 22 23 19 21 18 21 14 14 31 11 8 11 14 9 10 4 3 7 17 16 11 12 18 5 6 16 9 16 25 24 34
56 54 52 51 48 43 41 48 41 31 24 45 47 25 22 25 16 15 21 15 5 29 8 12 10 13 4 15 17 13 11 10 30 31 24 18 11 14 15 6 9 2 1 8
64 63 58 59 55 55 48 56 49 49 37 57 48 42 37 28 28 17 9 10 9 7 11 12 16 13 12 7 10 18 22 25 15 19 15 35 22 16 18 5 4 7 8 20
65 61 59 59 59 57 51 64 56 60 58 51 36 64 71 58 63 48 33 23 13 8 8 9 10 16 11 18 25 19 12 19 12 22 16 3 22 32 40 24 23 23 21 26
60 56 60 59 60 53 47 56 56 46 56 78 70 69 72 63 60 56 39 35 35 30 34 13 8 14 4 17 24 31 12 12 10 7 27 32 36 42 48 49 58 54 49 38
61 57 59 57 55 55 54 58 60 61 40 17 49 47 48 52 55 60 76 81 68 63 48 20 13 18 18 20 21 24 19 15 16 22 35 31 59 50 47 53 63 69 72 54
62 56 53 57 58 60 62 67 71 72 63 12 19 19 17 13 25 50 58 64 63 51 31 20 25 35 26 25 29 27 32 30 22 23 25 18 40 45 52 44 48 57 55 51
56 64 59 59 60 59 63 59 76 78 81 31 17 25 44 50 60 68 71 80 73 66 40 21 47 80 38 20 28 41 66 73 67 37 76 65 77 71 79 62 52 49 44 42
62 56 55 56 59 61 58 35 28 33 41 34 9 9 30 44 63 70 74 81 63 57 62 43 49 51 45 30 40 57 86 59 59 80 90 75 89 58 58 56 43 37 33 32
51 45 46 48 54 59 66 69 66 60 53 19 7 7 15 34 22 20 49 53 52 40 33 24 25 36 35 27 48 85 88 78 77 89 90 79 70 58 56 52 47 40 38 35
32 35 40 47 50 47 58 55 58 57 54 10 4 2 13 24 44 48 45 28 9 16 8 9 13 15 18 17 28 37 35 26 40 53 52 63 67 69 58 51 48 50 48 48
25 33 23 13 22 29 31 13 13 17 19 21 8 17 18 28 34 15 10 13 16 22 23 39 27 31 55 15 14 20 33 33 26 25 29 40 48 54 53 52 49 53 57 57
4 6 13 21 18 15 11 9 11 13 7 6 6 10 6 9 10 10 14 8 8 21 27 27 31 33 11 29 26 27 30 30 30 38 44 36 38 47 49 45 47 52 56 61
13 20 28 21 14 11 10 9 5 8 6 6 3 3 7 13 13 11 12 9 8 19 14 21 39 2 32 33 32 29 24 20 17 20 24 24 28 38 47 48 51 53 56 61
16 4 5 7 3 10 9 14 7 6 3 7 8 3 7 10 15 10 11 15 13 8 11 14 6 20 30 33 32 23 17 8 3 5 10 18 27 31 38 48 49 57 66 71
10 6 9 4 3 3 7 8 7 7 7 10 12 9 5 6 7 9 13 11 5 12 13 5 11 31 33 28 23 16 14 7 12 18 23 29 36 44 49 55 63 71 77 76
2 3 8 5 6 6 5 7 1 10 9 12 7 9 4 5 10 6 9 8 3 9 7 9 30 32 27 22 18 12 12 15 24 31 39 48 55 64 70 69 75 81 85 86
11 6 6 3 4 4 8 13 6 17 19 6 5 4 5 1 7 6 8 10 5 7 9 26 28 24 20 15 9 11 20 29 39 46 54 63 71 79 82 82 81 82 85 88
7 8 14 11 14 11 8 13 14 23 13 2 4 4 3 9 5 4 6 5 7 18 21 18 18 15 13 15 22 33 41 50 56 64 70 78 80 83 87 90 83 84 82 79
Wind_Direction_500mb
5 8 14 20 64 209 212 198 187 183 181 140 192 237 223 6 278 197 275 265 285 210 173 201 216 218 217 167 162 157 174 112 228 209 96 8 338 236 193 224 210 239 287 258
4 6 19 36 0 16 254 357 134 173 173 181 208 241 290 275 282 270 189 268 234 265 232 242 200 198 131 169 178 165 167 202 227 197 187 22 222 208 231 257 296 246 264 250
2 4 4 5 1 337 334 325 357 16 195 314 277 217 235 233 234 252 215 228 312 252 254 240 247 237 143 194 196 152 167 182 243 247 57 76 203 215 224 222 248 263 242 270
356 359 360 360 357 359 0 26 62 92 232 260 269 321 332 244 231 229 276 244 226 231 242 217 221 208 133 166 186 176 206 229 217 260 268 226 241 222 204 216 233 245 270 272
343 347 351 355 358 10 45 8 343 290 242 222 258 227 265 260 283 235 224 234 253 237 242 247 278 255 187 238 174 203 68 218 124 263 256 244 254 243 233 242 240 257 265 270
330 330 336 343 352 360 11 351 306 298 275 228 242 201 231 301 328 228 239 265 288 239 247 259 266 266 258 246 183 187 169 198 181 252 346 290 270 242 228 243 240 238 252 258
311 315 319 321 328 346 333 316 324 274 271 239 254 253 226 260 253 262 278 292 273 276 269 244 246 243 246 252 244 189 167 195 193 254 148 250 354 117 223 233 249 242 252 262
298 296 294 297 297 294 294 288 283 266 275 277 270 273 273 284 281 274 272 264 250 262 218 221 216 184 211 217 228 219 186 180 200 222 211 284 296 258 189 186 255 232 246 258
295 291 293 290 282 284 276 263 259 244 277 259 269 275 281 281 287 279 266 266 273 210 207 234 232 219 198 191 178 319 227 209 208 180 232 246 96 43 118 146 269 254 234 255
291 289 286 282 283 278 272 272 255 238 247 255 249 254 266 266 264 279 293 297 255 212 222 226 243 248 191 186 186 170 175 198 214 223 241 269 212 159 151 208 279 146 284 273
281 279 279 278 280 275 270 267 263 258 251 254 245 235 223 243 237 253 322 290 209 218 234 236 222 235 222 268 184 174 172 177 197 218 236 254 159 126 216 213 188 252 284 306
278 275 279 279 278 273 268 269 266 268 252 262 267 248 251 247 243 249 242 250 290 289 269 249 258 240 207 223 242 186 220 214 194 205 214 275 192 221 225 274 292 292 284 290
279 277 276 274 274 276 269 272 275 257 259 262 253 250 256 249 242 240 233 236 239 252 266 294 297 266 308 235 233 247 222 216 241 156 247 256 259 247 251 263 271 280 284 285
271 272 274 276 276 275 275 273 272 269 263 272 266 265 251 249 242 240 234 245 255 260 258 257 252 257 251 271 276 287 262 155 216 254 265 285 273 263 267 266 271 269 270 271
275 271 274 276 277 275 274 272 270 266 254 285 266 251 232 246 243 240 238 240 237 245 248 243 251 256 260 256 265 261 246 244 233 245 255 241 270 283 291 292 274 276 265 259
279 270 272 273 274 275 275 277 269 264 259 254 261 270 258 265 248 240 240 240 239 241 239 239 247 242 238 252 260 258 256 252 258 267 266 268 277 282 282 283 277 269 258 250
277 281 277 277 271 266 255 250 269 276 242 233 257 241 232 250 251 246 242 245 240 235 236 237 242 242 234 242 247 255 259 264 263 255 259 264 262 261 272 272 261 247 229 221
268 270 274 276 275 269 263 251 253 254 259 213 226 233 249 251 248 247 235 234 225 216 227 228 227 244 238 244 249 256 262 261 260 261 261 259 259 261 256 251 242 226 209 201
246 264 277 282 271 269 261 271 258 253 245 248 206 191 281 229 243 253 256 253 269 256 247 243 251 260 252 257 269 267 282 285 281 275 261 258 250 246 241 232 222 213 191 186
262 271 273 242 246 260 255 251 221 209 215 243 263 263 257 265 252 248 236 242 242 247 253 258 248 254 250 26 324 300 289 289 288 285 262 250 239 230 224 218 210 205 191 178
349 233 231 250 250 203 190 204 212 209 221 214 214 223 261 250 247 258 237 242 232 246 244 241 250 252 254 354 336 320 302 296 288 264 265 265 252 235 216 200 194 188 182 174
297 263 265 247 197 198 205 196 163 216 233 134 164 137 242 273 233 239 211 233 240 250 232 247 242 48 2 350 342 333 326 312 298 274 262 249 219 202 197 184 175 171 168 162
348 320 275 317 125 210 213 200 182 199 95 45 21 280 263 266 243 252 238 231 233 233 239 239 74 1 355 351 349 342 345 339 286 200 182 176 170 174 183 166 161 157 153 154
348 340 285 263 231 306 14 4 29 44 38 359 331 264 259 270 250 244 260 231 228 241 238 56 9 354 339 345 351 358 10 65 114 122 139 145 147 142 144 148 149 149 144 145
248 280 249 236 91 85 65 17 120 4 342 337 301 262 254 270 263 344 311 260 56 29 13 356 346 340 339 350 6 26 58 94 111 125 132 132 135 135 132 135 139 140 140 141
191 156 211 114 199 122 38 13 20 344 328 322 243 270 252 140 358 343 33 303 2 10 336 331 333 345 357 13 38 88 114 118 119 123 126 128 128 128 126 129 130 132 133 132
49 45 47 52 68 66 36 3 347 328 315 333 289 239 28 299 99 57 16 344 331 326 330 340 350 7 34 66 90 104 113 116 117 119 119 119 120 124 124 120 122 125 124 124
Wind_Speed_850mb
53 57 64 55 31 26 56 34 5 16 35 8 6 21 8 10 6 4 6 5 8 11 12 14 15 14 7 15 20 20 9 2 8 11 7 5 5 11 19 10 12 12 12 21
51 53 46 27 18 20 7 1 5 25 50 10 12 10 12 11 12 12 1 7 12 12 12 9 14 13 7 23 14 10 17 7 7 8 3 2 10 15 16 16 7 28 17 15
48 47 48 38 31 28 32 10 4 3 24 12 8 19 16 21 24 19 17 9 8 10 13 17 5 7 3 13 7 8 14 9 13 20 8 7 8 13 25 20 15 24 42 49
46 46 46 45 44 30 18 13 4 1 2 7 13 15 9 14 16 10 10 10 37 27 14 6 12 12 6 3 9 8 4 10 8 20 25 11 14 16 21 31 40 27 43 50
40 42 44 42 43 36 11 8 6 4 8 12 11 9 8 23 15 9 11 26 19 23 33 29 3 13 12 13 5 11 3 14 5 10 23 24 29 31 27 43 43 49 49 71
37 37 36 36 36 32 10 14 9 7 11 6 6 9 5 7 6 18 33 19 10 23 35 33 43 24 26 19 15 20 13 11 8 13 4 16 29 40 48 43 37 46 45 69
39 36 36 33 26 22 15 15 13 9 14 13 14 9 18 23 23 21 29 31 16 7 17 11 20 27 31 32 27 27 12 17 9 5 4 17 2 4 15 40 43 40 52 58
46 41 38 32 29 23 19 19 14 8 13 20 24 27 24 33 34 32 35 46 47 36 12 7 8 7 7 15 29 23 21 18 8 10 19 25 33 20 15 16 22 37 45 49
48 46 47 41 38 36 34 33 28 22 18 14 26 22 23 19 21 18 21 14 14 31 11 8 11 14 9 10 4 3 7 17 16 11 12 18 5 6 16 9 16 25 24 34
56 54 52 51 48 43 41 48 41 31 24 45 47 25 22 25 16 15 21 15 5 29 8 12 10 13 4 15 17 13 11 10 30 31 24 18 11 14 15 6 9 2 1 8
64 63 58 59 55 55 48 56 49 49 37 57 48 42 37 28 28 17 9 10 9 7 11 12 16 13 12 7 10 18 22 25 15 19 15 35 22 16 18 5 4 7 8 20
65 61 59 59 59 57 51 64 56 60 58 51 36 64 71 58 63 48 33 23 13 8 8 9 10 16 11 18 25 19 12 19 12 22 16 3 22 32 40 24 23 23 21 26
60 56 60 59 60 53 47 56 56 46 56 78 70 69 72 63 60 56 39 35 35 30 34 13 8 14 4 17 24 31 12 12 10 7 27 32 36 42 48 49 58 54 49 38
61 57 59 57 55 55 54 58 60 61 40 17 49 47 48 52 55 60 76 81 68 63 48 20 13 18 18 20 21 24 19 15 16 22 35 31 59 50 47 53 63 69 72 54
62 56 53 57 58 60 62 67 71 72 63 12 19 19 17 13 25 50 58 64 63 51 31 20 25 35 26 25 29 27 32 30 22 23 25 18 40 45 52 44 48 57 55 51
56 64 59 59 60 59 63 59 76 78 81 31 17 25 44 50 60 68 71 80 73 66 40 21 47 80 38 20 28 41 66 73 67 37 76 65 77 71 79 62 52 49 44 42
62 56 55 56 59 61 58 35 28 33 41 34 9 9 30 44 63 70 74 81 63 57 62 43 49 51 45 30 40 57 86 59 59 80 90 75 89 58 58 56 43 37 33 32
51 45 46 48 54 59 66 69 66 60 53 19 7 7 15 34 22 20 49 53 52 40 33 24 25 36 35 27 48 85 88 78 77 89 90 79 70 58 56 52 47 40 38 35
32 35 40 47 50 47 58 55 58 57 54 10 4 2 13 24 44 48 45 28 9 16 8 9 13 15 18 17 28 37 35 26 40 53 52 63 67 69 58 51 48 50 48 48
25 33 23 13 22 29 31 13 13 17 19 21 8 17 18 28 34 15 10 13 16 22 23 39 27 31 55 15 14 20 33 33 26 25 29 40 48 54 53 52 49 53 57 57
4 6 13 21 18 15 11 9 11 13 7 6 6 10 6 9 10 10 14 8 8 21 27 27 31 33 11 29 26 27 30 30 30 38 44 36 38 47 49 45 47 52 56 61
13 20 28 21 14 11 10 9 5 8 6 6 3 3 7 13 13 11 12 9 8 19 14 21 39 2 32 33 32 29 24 20 17 20 24 24 28 38 47 48 51 53 56 61
16 4 5 7 3 10 9 14 7 6 3 7 8 3 7 10 15 10 11 15 13 8 11 14 6 20 30 33 32 23 17 8 3 5 10 18 27 31 38 48 49 57 66 71
10 6 9 4 3 3 7 8 7 7 7 10 12 9 5 6 7 9 13 11 5 12 13 5 11 31 33 28 23 16 14 7 12 18 23 29 36 44 49 55 63 71 77 76
2 3 8 5 6 6 5 7 1 10 9 12 7 9 4 5 10 6 9 8 3 9 7 9 30 32 27 22 18 12 12 15 24 31 39 48 55 64 70 69 75 81 85 86
11 6 6 3 4 4 8 13 6 17 19 6 5 4 5 1 7 6 8 10 5 7 9 26 28 24 20 15 9 11 20 29 39 46 54 63 71 79 82 82 81 82 85 88
7 8 14 11 14 11 8 13 14 23 13 2 4 4 3 9 5 4 6 5 7 18 21 18 18 15 13 15 22 33 41 50 56 64 70 78 80 83 87 90 83 84 82 79
Wind_Direction_850mb
5 8 14 20 64 209 212 198 187 183 181 140 192 237 223 6 278 197 275 265 285 210 173 201 216 218 217 167 162 157 174 112 228 209 96 8 338 236 193 224 210 239 287 258
4 6 19 36 0 16 254 357 134 173 173 181 208 241 290 275 282 270 189 268 234 265 232 242 200 198 131 169 178 165 167 202 227 197 187 22 222 208 231 257 296 246 264 250
2 4 4 5 1 337 334 325 357 16 195 314 277 217 235 233 234 252 215 228 312 252 254 240 247 237 143 194 196 152 167 182 243 247 57 76 203 215 224 222 248 263 242 270
356 359 360 360 357 359 0 26 62 92 232 260 269 321 332 244 231 229 276 244 226 231 242 217 221 208 133 166 186 176 206 229 217 260 268 226 241 222 204 216 233 245 270 272
343 347 351 355 358 10 45 8 343 290 242 222 258 227 265 260 283 235 224 234 253 237 242 247 278 255 187 238 174 203 68 218 124 263 256 244 254 243 233 242 240 257 265 270
330 330 336 343 352 360 11 351 306 298 275 228 242 201 231 301 328 228 239 265 288 239 247 259 266 266 258 246 183 187 169 198 181 252 346 290 270 242 228 243 240 238 252 258
311 315 319 321 328 346 333 316 324 274 271 239 254 253 226 260 253 262 278 292 273 276 269 244 246 243 246 252 244 189 167 195 193 254 148 250 354 117 223 233 249 242 252 262
298 296 294 297 297 294 294 288 283 266 275 277 270 273 273 284 281 274 272 264 250 262 218 221 216 184 211 217 228 219 186 180 200 222 211 284 296 258 189 186 255 232 246 258
295 291 293 290 282 284 276 263 259 244 277 259 269 275 281 281 287 279 266 266 273 210 207 234 232 219 198 191 178 319 227 209 208 180 232 246 96 43 118 146 269 254 234 255
291 289 286 282 283 278 272 272 255 238 247 255 249 254 266 266 264 279 293 297 255 212 222 226 243 248 191 186 186 170 175 198 214 223 241 269 212 159 151 208 279 146 284 273
281 279 279 278 280 275 270 267 263 258 251 254 245 235 223 243 237 253 322 290 209 218 234 236 222 235 222 268 184 174 172 177 197 218 236 254 159 126 216 213 188 252 284 306
278 275 279 279 278 273 268 269 266 268 252 262 267 248 251 247 243 249 242 250 290 289 269 249 258 240 207 223 242 186 220 214 194 205 214 275 192 221 225 274 292 292 284 290
279 277 276 274 274 276 269 272 275 257 259 262 253 250 256 249 242 240 233 236 239 252 266 294 297 266 308 235 233 247 222 216 241 156 247 256 259 247 251 263 271 280 284 285
271 272 274 276 276 275 275 273 272 269 263 272 266 265 251 249 242 240 234 245 255 260 258 257 252 257 251 271 276 287 262 155 216 254 265 285 273 263 267 266 271 269 270 271
275 271 274 276 277 275 274 272 270 266 254 285 266 251 232 246 243 240 238 240 237 245 248 243 251 256 260 256 265 261 246 244 233 245 255 241 270 283 291 292 274 276 265 259
279 270 272 273 274 275 275 277 269 264 259 254 261 270 258 265 248 240 240 240 239 241 239 239 247 242 238 252 260 258 256 252 258 267 266 268 277 282 282 283 277 269 258 250
277 281 277 277 271 266 255 250 269 276 242 233 257 241 232 250 251 246 242 245 240 235 236 237 242 242 234 242 247 255 259 264 263 255 259 264 262 261 272 272 261 247 229 221
268 270 274 276 275 269 263 251 253 254 259 213 226 233 249 251 248 247 235 234 225 216 227 228 227 244 238 244 249 256 262 261 260 261 261 259 259 261 256 251 242 226 209 201
246 264 277 282 271 269 261 271 258 253 245 248 206 191 281 229 243 253 256 253 269 256 247 243 251 260 252 257 269 267 282 285 281 275 261 258 250 246 241 232 222 213 191 186
262 271 273 242 246 260 255 251 221 209 215 243 263 263 257 265 252 248 236 242 242 247 253 258 248 254 250 26 324 300 289 289 288 285 262 250 239 230 224 218 210 205 191 178
349 233 231 250 250 203 190 204 212 209 221 214 214 223 261 250 247 258 237 242 232 246 244 241 250 252 254 354 336 320 302 296 288 264 265 265 252 235 216 200 194 188 182 174
297 263 265 247 197 198 205 196 163 216 233 134 164 137 242 273 233 239 211 233 240 250 232 247 242 48 2 350 342 333 326 312 298 274 262 249 219 202 197 184 175 171 168 162
348 320 275 317 125 210 213 200 182 199 95 45 21 280 263 266 243 252 238 231 233 233 239 239 74 1 355 351 349 342 345 339 286 200 182 176 170 174 183 166 161 157 153 154
348 340 285 263 231 306 14 4 29 44 38 359 331 264 259 270 250 244 260 231 228 241 238 56 9 354 339 345 351 358 10 65 114 122 139 145 147 142 144 148 149 149 144 145
248 280 249 236 91 85 65 17 120 4 342 337 301 262 254 270 263 344 311 260 56 29 13 356 346 340 339 350 6 26 58 94 111 125 132 132 135 135 132 135 139 140 140 141
191 156 211 114 199 122 38 13 20 344 328 322 243 270 252 140 358 343 33 303 2 10 336 331 333 345 357 13 38 88 114 118 119 123 126 128 128 128 126 129 130 132 133 132
49 45 47 52 68 66 36 3 347 328 315 333 289 239 28 299 99 57 16 344 331 326 330 340 350 7 34 66 90 104 113 116 117 119 119 119 120 124 124 120 122 125 124 124